This is the latest recevied weather packets stored in our database for station/object OE3CJB-13. If no packets are shown the sender has not sent any weather packets the latest 10 day(s).
| Time | Temp. | Humidity | Pressure | Rain* | Wind** | Luminosity | Snow |
|---|---|---|---|---|---|---|---|
| 1777744842 | 20.56° C | - | 771.5 hPa | 0 mm | - | - | - |
| 1777743927 | 21.11° C | - | 771.5 hPa | 0 mm | - | - | - |
| 1777743112 | 21.67° C | - | 770.7 hPa | 0 mm | - | - | - |
| 1777742198 | 22.22° C | - | 768.4 hPa | 0 mm | - | - | - |
| 1777741241 | 22.22° C | - | 766.8 hPa | 0 mm | - | - | - |
| 1777740375 | 22.78° C | - | 765.3 hPa | 0 mm | - | - | - |
| 1777739415 | 22.78° C | - | 763.8 hPa | 0 mm | - | - | - |
| 1777738551 | 23.33° C | - | 762.3 hPa | 0 mm | - | - | - |
| 1777737658 | 23.89° C | - | 761.6 hPa | 0 mm | - | - | - |
| 1777736727 | 24.44° C | - | 761.7 hPa | 0 mm | - | - | - |
| 1777735865 | 24.44° C | - | 757.8 hPa | 0 mm | - | - | - |
| 1777734951 | 25° C | - | 756.3 hPa | 0 mm | - | - | - |
| 1777734042 | 25° C | - | 755.7 hPa | 0 mm | - | - | - |
| 1777733175 | 25° C | - | 754.9 hPa | 0 mm | - | - | - |
| 1777732311 | 25.56° C | - | 755 hPa | 0 mm | - | - | - |
| 1777731447 | 25° C | - | 755.8 hPa | 0 mm | - | - | - |
| 1777730441 | 25° C | - | 755.8 hPa | 0 mm | - | - | - |
| 1777729527 | 25° C | - | 756.7 hPa | 0 mm | - | - | - |
| 1777728665 | 25° C | - | 757.5 hPa | 0 mm | - | - | - |
| 1777727751 | 24.44° C | - | 757.6 hPa | 0 mm | - | - | - |
| 1777726889 | 24.44° C | - | 758.5 hPa | 0 mm | - | - | - |
| 1777725927 | 23.89° C | - | 758.6 hPa | 0 mm | - | - | - |
| 1777725015 | 23.89° C | - | 760.2 hPa | 0 mm | - | - | - |
| 1777724151 | 23.33° C | - | 760.4 hPa | 0 mm | - | - | - |
| 1777723290 | 23.33° C | - | 760.4 hPa | 0 mm | - | - | - |
* Rain latest hour (hover to see other rain measurements)
** Current wind speed in m/s (hover to see current wind gust speed)